QPF
0.00 0.00 0.00 0.00 0.00 0.00 0.00 0.00 0.00 0.00 0.00 0.00 0.00 0.00 0.00 0.00 0.00 0.00 0.00 0.00 0.00 0.00 0.00 0.00 0.00 0.00 0.00 0.00 0.00 0.00 0.00 0.00 0.00 0.00 0.00 0.00 0.00 0.00 0.00 0.00 0.00 0.00 0.00 0.00
0.00 0.00 0.00 0.00 0.00 0.00 0.00 0.00 0.00 0.00 0.00 0.00 0.00 0.00 0.00 0.00 0.00 0.00 0.00 0.00 0.00 0.00 0.00 0.00 0.00 0.00 0.00 0.00 0.00 0.00 0.00 0.00 0.00 0.00 0.00 0.00 0.00 0.00 0.00 0.00 0.00 0.00 0.00 0.01
0.00 0.00 0.00 0.00 0.00 0.00 0.00 0.00 0.00 0.00 0.00 0.00 0.00 0.00 0.00 0.00 0.00 0.00 0.00 0.00 0.00 0.00 0.00 0.00 0.00 0.00 0.00 0.00 0.00 0.00 0.00 0.00 0.00 0.00 0.00 0.00 0.00 0.00 0.00 0.00 0.00 0.00 0.00 0.01
0.00 0.00 0.00 0.00 0.00 0.00 0.00 0.00 0.00 0.00 0.00 0.00 0.00 0.00 0.00 0.00 0.00 0.00 0.00 0.00 0.00 0.00 0.00 0.00 0.00 0.00 0.00 0.00 0.00 0.00 0.00 0.00 0.00 0.00 0.00 0.00 0.00 0.00 0.01 0.02 0.01 0.01 0.01 0.01
0.00 0.00 0.00 0.00 0.00 0.00 0.00 0.00 0.00 0.00 0.00 0.00 0.00 0.00 0.00 0.00 0.00 0.00 0.00 0.00 0.00 0.00 0.00 0.00 0.00 0.00 0.00 0.00 0.00 0.00 0.00 0.00 0.00 0.00 0.00 0.00 0.00 0.00 0.00 0.02 0.02 0.02 0.02 0.01
0.00 0.00 0.00 0.00 0.00 0.00 0.00 0.00 0.00 0.00 0.00 0.00 0.00 0.00 0.00 0.00 0.00 0.00 0.00 0.00 0.00 0.00 0.00 0.00 0.00 0.00 0.00 0.00 0.00 0.00 0.00 0.00 0.00 0.00 0.00 0.00 0.00 0.00 0.01 0.03 0.05 0.04 0.02 0.02
0.00 0.00 0.00 0.00 0.00 0.00 0.00 0.00 0.00 0.00 0.00 0.00 0.00 0.00 0.00 0.00 0.00 0.00 0.00 0.00 0.00 0.00 0.00 0.00 0.00 0.00 0.00 0.00 0.00 0.00 0.00 0.00 0.00 0.00 0.00 0.00 0.01 0.03 0.07 0.06 0.04 0.02 0.02 0.03
0.00 0.00 0.00 0.00 0.00 0.00 0.00 0.00 0.00 0.00 0.00 0.00 0.00 0.00 0.00 0.00 0.00 0.00 0.00 0.00 0.00 0.00 0.00 0.00 0.00 0.00 0.00 0.00 0.00 0.00 0.00 0.00 0.00 0.00 0.00 0.00 0.00 0.01 0.02 0.02 0.03 0.03 0.04 0.05
0.00 0.00 0.00 0.00 0.00 0.00 0.00 0.00 0.00 0.00 0.00 0.00 0.00 0.00 0.00 0.00 0.00 0.00 0.00 0.00 0.00 0.00 0.00 0.00 0.00 0.00 0.00 0.00 0.00 0.00 0.00 0.00 0.00 0.00 0.00 0.00 0.00 0.00 0.00 0.00 0.01 0.02 0.02 0.03
0.00 0.00 0.00 0.00 0.00 0.00 0.00 0.00 0.00 0.00 0.00 0.00 0.00 0.00 0.00 0.00 0.00 0.00 0.00 0.00 0.00 0.00 0.00 0.00 0.00 0.00 0.00 0.00 0.00 0.00 0.00 0.00 0.00 0.00 0.00 0.00 0.00 0.00 0.00 0.00 0.00 0.00 0.01 0.01
0.00 0.00 0.00 0.00 0.00 0.00 0.00 0.00 0.00 0.00 0.00 0.00 0.00 0.00 0.00 0.00 0.00 0.00 0.00 0.00 0.00 0.00 0.00 0.00 0.00 0.00 0.00 0.00 0.00 0.00 0.00 0.00 0.00 0.00 0.00 0.00 0.00 0.00 0.00 0.00 0.00 0.00 0.01 0.01
0.00 0.00 0.00 0.00 0.00 0.00 0.00 0.00 0.00 0.00 0.00 0.00 0.00 0.00 0.00 0.00 0.00 0.00 0.00 0.00 0.00 0.00 0.00 0.00 0.00 0.00 0.00 0.00 0.00 0.00 0.00 0.00 0.00 0.00 0.00 0.00 0.00 0.00 0.00 0.00 0.00 0.00 0.00 0.00
0.00 0.01 0.01 0.00 0.00 0.00 0.00 0.00 0.00 0.00 0.00 0.00 0.00 0.00 0.00 0.00 0.00 0.00 0.00 0.00 0.00 0.00 0.00 0.00 0.00 0.00 0.00 0.00 0.00 0.00 0.00 0.00 0.00 0.00 0.00 0.00 0.00 0.00 0.00 0.00 0.00 0.00 0.00 0.00
0.00 0.00 0.00 0.00 0.00 0.00 0.00 0.00 0.00 0.00 0.00 0.00 0.00 0.00 0.00 0.00 0.00 0.00 0.00 0.00 0.00 0.00 0.00 0.00 0.00 0.00 0.00 0.00 0.00 0.00 0.00 0.00 0.00 0.00 0.00 0.00 0.00 0.00 0.00 0.00 0.00 0.00 0.00 0.00
0.00 0.04 0.00 0.00 0.00 0.00 0.00 0.00 0.00 0.00 0.00 0.00 0.00 0.00 0.00 0.00 0.00 0.00 0.00 0.00 0.00 0.00 0.00 0.00 0.00 0.00 0.00 0.00 0.00 0.00 0.00 0.01 0.01 0.01 0.00 0.00 0.00 0.00 0.00 0.00 0.00 0.00 0.00 0.00
0.05 0.07 0.03 0.00 0.01 0.00 0.01 0.00 0.00 0.00 0.00 0.00 0.00 0.00 0.00 0.00 0.00 0.00 0.00 0.00 0.00 0.00 0.00 0.00 0.00 0.00 0.00 0.00 0.00 0.00 0.00 0.01 0.02 0.03 0.03 0.02 0.02 0.01 0.00 0.01 0.02 0.01 0.01 0.01
0.16 0.13 0.11 0.11 0.08 0.09 0.07 0.01 0.02 0.01 0.00 0.00 0.00 0.00 0.00 0.00 0.00 0.00 0.00 0.00 0.00 0.00 0.00 0.00 0.00 0.00 0.00 0.00 0.00 0.00 0.00 0.00 0.00 0.00 0.01 0.02 0.02 0.02 0.02 0.03 0.03 0.06 0.10 0.09
0.24 0.27 0.26 0.28 0.21 0.29 0.12 0.00 0.00 0.04 0.07 0.04 0.01 0.00 0.00 0.00 0.00 0.00 0.00 0.00 0.00 0.00 0.00 0.00 0.00 0.00 0.00 0.00 0.00 0.00 0.00 0.00 0.00 0.00 0.00 0.00 0.01 0.02 0.02 0.03 0.05 0.04 0.06 0.04
0.05 0.13 0.27 0.34 0.30 0.19 0.05 0.00 0.00 0.03 0.08 0.06 0.03 0.01 0.00 0.00 0.00 0.00 0.00 0.00 0.00 0.00 0.00 0.00 0.00 0.00 0.00 0.00 0.00 0.00 0.00 0.00 0.00 0.00 0.00 0.00 0.00 0.00 0.01 0.02 0.04 0.04 0.04 0.04
0.05 0.03 0.06 0.15 0.12 0.08 0.02 0.00 0.00 0.02 0.06 0.01 0.01 0.01 0.02 0.03 0.02 0.01 0.00 0.00 0.00 0.00 0.00 0.00 0.00 0.00 0.00 0.00 0.00 0.00 0.00 0.00 0.00 0.00 0.00 0.00 0.00 0.00 0.00 0.00 0.02 0.06 0.07 0.08
0.09 0.11 0.10 0.09 0.07 0.01 0.00 0.00 0.00 0.02 0.02 0.00 0.00 0.00 0.00 0.01 0.00 0.00 0.00 0.00 0.00 0.00 0.00 0.00 0.00 0.00 0.00 0.00 0.00 0.00 0.00 0.00 0.00 0.00 0.00 0.00 0.00 0.00 0.00 0.00 0.01 0.04 0.07 0.09
0.01 0.04 0.07 0.07 0.08 0.03 0.00 0.00 0.00 0.00 0.00 0.00 0.00 0.00 0.00 0.00 0.00 0.00 0.00 0.00 0.00 0.00 0.00 0.00 0.00 0.00 0.00 0.00 0.00 0.00 0.00 0.00 0.00 0.00 0.00 0.00 0.00 0.00 0.00 0.00 0.01 0.03 0.07 0.12
0.00 0.00 0.00 0.00 0.01 0.00 0.00 0.00 0.00 0.00 0.00 0.00 0.00 0.00 0.00 0.00 0.00 0.00 0.00 0.00 0.00 0.00 0.00 0.00 0.00 0.00 0.00 0.00 0.00 0.00 0.00 0.00 0.00 0.00 0.00 0.00 0.00 0.00 0.00 0.00 0.00 0.00 0.00 0.02
0.00 0.00 0.00 0.00 0.00 0.00 0.00 0.00 0.00 0.00 0.00 0.00 0.00 0.00 0.00 0.00 0.00 0.00 0.00 0.00 0.00 0.00 0.00 0.00 0.00 0.00 0.00 0.00 0.00 0.00 0.00 0.00 0.00 0.00 0.00 0.00 0.00 0.00 0.00 0.00 0.00 0.00 0.00 0.02
0.00 0.00 0.00 0.00 0.00 0.00 0.00 0.00 0.00 0.00 0.00 0.00 0.00 0.00 0.00 0.00 0.00 0.00 0.00 0.00 0.00 0.00 0.00 0.00 0.00 0.00 0.00 0.00 0.00 0.00 0.00 0.00 0.00 0.00 0.00 0.00 0.00 0.00 0.00 0.00 0.00 0.00 0.00 0.01
0.00 0.00 0.00 0.00 0.00 0.00 0.00 0.00 0.00 0.00 0.00 0.00 0.00 0.00 0.00 0.00 0.00 0.00 0.00 0.00 0.00 0.00 0.00 0.00 0.00 0.00 0.00 0.00 0.00 0.00 0.00 0.00 0.00 0.00 0.00 0.00 0.00 0.00 0.00 0.00 0.00 0.00 0.00 0.01
MSLP
1012.73 1013.33 1012.56 1011.31 1011.97 1012.08 1012.24 1012.03 1011.41 1010.49 1009.76 1009.99 1009.46 1009.40 1008.48 1007.84 1007.59 1007.05 1006.59 1006.50 1006.22 1005.88 1005.49 1005.55 1005.34 1005.05 1004.46 1004.92 1005.34 1005.99 1006.83 1007.47 1008.20 1009.02 1009.77 1010.52 1010.74 1011.30 1011.63 1011.80 1012.00 1012.37 1012.70 1013.15
1013.21 1012.26 1011.91 1012.02 1012.08 1012.26 1012.24 1012.02 1011.54 1010.50 1010.04 1010.36 1009.32 1008.73 1008.04 1007.68 1006.72 1006.12 1005.92 1005.95 1005.78 1005.72 1005.70 1005.75 1005.59 1005.50 1005.11 1004.80 1005.16 1006.02 1006.55 1007.18 1007.64 1008.25 1008.98 1009.85 1010.41 1011.23 1011.56 1011.80 1012.02 1012.21 1012.34 1012.67
1011.78 1011.28 1010.79 1011.60 1011.98 1012.18 1011.97 1011.93 1011.45 1011.07 1010.58 1009.98 1009.67 1008.23 1007.38 1006.52 1005.79 1005.23 1005.14 1005.27 1005.37 1005.51 1005.97 1006.23 1006.23 1006.10 1005.79 1005.93 1005.92 1006.24 1006.49 1006.99 1007.60 1008.25 1009.27 1010.17 1010.85 1011.50 1011.92 1012.05 1012.29 1012.54 1012.56 1012.66
1011.30 1010.91 1011.10 1011.17 1011.52 1011.68 1011.33 1010.78 1010.88 1011.24 1011.64 1010.97 1009.90 1008.23 1006.94 1006.08 1005.67 1005.44 1005.05 1005.30 1005.41 1005.80 1006.54 1006.82 1007.08 1006.75 1006.75 1006.87 1006.72 1006.98 1007.24 1007.71 1008.14 1008.57 1009.14 1009.79 1010.09 1010.87 1011.25 1011.63 1012.23 1012.63 1012.86 1013.02
1009.69 1009.78 1010.22 1010.20 1009.75 1010.42 1010.18 1010.00 1010.68 1010.91 1011.12 1011.07 1010.63 1009.76 1006.00 1005.65 1005.56 1005.18 1004.93 1005.38 1005.78 1006.57 1006.99 1007.33 1007.60 1007.58 1007.48 1007.13 1007.39 1007.63 1007.79 1008.30 1008.77 1009.11 1009.41 1009.91 1010.41 1010.99 1011.57 1011.99 1012.43 1012.65 1013.05 1013.25
1009.21 1008.93 1009.08 1008.67 1008.90 1009.30 1009.46 1010.00 1010.49 1010.89 1011.38 1010.70 1010.39 1009.52 1003.92 1005.16 1004.65 1004.59 1004.95 1005.45 1006.26 1007.02 1007.36 1007.85 1007.94 1007.94 1008.03 1007.88 1008.02 1008.09 1008.48 1009.07 1009.32 1009.60 1009.96 1010.33 1010.77 1011.34 1011.94 1012.40 1012.72 1013.08 1013.42 1013.41
1009.07 1008.37 1008.43 1008.18 1008.42 1008.60 1009.23 1010.03 1010.92 1011.41 1011.62 1009.83 1008.61 1008.14 1004.98 1004.60 1004.12 1004.12 1004.73 1005.50 1006.39 1007.25 1007.52 1007.85 1008.14 1008.31 1008.44 1008.60 1008.54 1008.57 1008.71 1009.13 1009.36 1009.47 1009.81 1010.14 1010.63 1011.13 1011.65 1012.27 1012.86 1013.39 1013.85 1014.04
1008.05 1007.62 1007.35 1006.83 1006.90 1007.47 1008.04 1008.60 1009.51 1010.22 1010.53 1009.31 1008.37 1006.53 1004.45 1003.72 1003.52 1003.75 1004.26 1005.20 1006.37 1007.03 1007.32 1007.70 1008.11 1008.27 1008.51 1008.76 1008.83 1008.84 1009.13 1009.48 1009.87 1010.14 1010.58 1010.91 1011.07 1011.51 1011.92 1012.24 1012.80 1013.27 1013.61 1013.87
1006.62 1006.20 1005.09 1005.01 1005.47 1006.80 1007.32 1007.78 1008.12 1009.14 1009.53 1009.47 1007.84 1005.87 1004.34 1003.99 1003.99 1004.33 1004.78 1005.89 1006.50 1006.80 1006.99 1007.13 1007.75 1007.96 1008.42 1008.94 1009.04 1009.09 1009.45 1009.74 1010.05 1010.49 1010.91 1011.37 1011.76 1012.01 1012.16 1012.46 1012.91 1013.29 1013.89 1014.05
1005.36 1005.52 1004.78 1004.55 1005.36 1005.84 1005.97 1006.67 1008.19 1009.11 1009.54 1009.40 1007.06 1006.19 1004.48 1004.42 1004.53 1004.95 1005.27 1005.69 1006.39 1006.74 1006.90 1007.18 1007.51 1007.75 1008.33 1008.82 1009.15 1009.34 1009.66 1009.94 1010.22 1010.50 1010.92 1011.29 1011.72 1012.26 1012.74 1012.98 1013.18 1013.34 1013.53 1013.81
1005.28 1005.54 1005.27 1004.95 1004.41 1004.75 1006.23 1006.30 1006.80 1007.38 1007.73 1007.71 1007.33 1004.86 1003.34 1003.58 1004.09 1004.69 1005.32 1005.76 1006.42 1006.77 1006.92 1006.91 1007.23 1007.75 1008.32 1008.99 1009.37 1009.80 1010.05 1010.27 1010.67 1010.95 1011.14 1011.51 1011.79 1011.93 1012.09 1012.35 1012.83 1013.24 1013.26 1013.32
1004.36 1005.72 1005.26 1004.91 1004.18 1004.16 1004.56 1004.68 1005.61 1006.26 1007.01 1007.13 1006.87 1002.93 1003.50 1003.50 1004.16 1004.82 1005.55 1006.19 1006.60 1007.02 1007.20 1007.20 1007.20 1007.59 1008.29 1008.92 1009.59 1010.17 1010.46 1010.60 1010.89 1011.02 1011.33 1011.54 1011.92 1012.35 1012.67 1012.79 1013.06 1013.41 1013.43 1013.77
1004.55 1005.35 1005.94 1005.08 1004.87 1004.47 1004.42 1004.48 1004.61 1005.14 1006.05 1005.61 1006.50 1003.96 1003.94 1003.91 1004.98 1005.67 1006.18 1006.94 1007.30 1007.51 1007.85 1008.00 1008.13 1008.47 1008.93 1009.41 1009.92 1010.25 1010.62 1010.95 1011.20 1011.66 1011.96 1012.17 1012.41 1012.74 1012.87 1013.34 1013.47 1013.50 1013.74 1013.99
1003.59 1004.17 1004.39 1003.40 1004.03 1004.42 1004.26 1004.09 1004.18 1004.72 1005.25 1004.44 1004.41 1005.11 1005.18 1005.47 1005.91 1006.58 1007.28 1007.76 1008.12 1008.47 1008.99 1009.39 1009.49 1009.80 1010.09 1010.32 1010.38 1010.61 1010.87 1011.10 1011.57 1011.99 1012.47 1012.62 1012.67 1012.54 1012.58 1012.75 1013.15 1013.48 1013.39 1013.72
1004.30 1004.25 1004.42 1003.71 1004.28 1004.33 1004.00 1003.60 1003.54 1003.82 1002.72 1004.23 1003.98 1004.92 1005.33 1006.26 1006.68 1007.43 1008.15 1008.79 1009.29 1009.83 1010.09 1010.38 1010.58 1010.64 1010.56 1010.47 1010.66 1010.89 1011.03 1011.16 1011.35 1011.85 1012.25 1012.58 1012.77 1013.07 1013.26 1012.92 1013.05 1012.96 1013.03 1013.21
1005.16 1004.61 1004.79 1004.04 1004.45 1004.58 1004.14 1003.33 1002.73 1002.64 1003.19 1004.09 1004.37 1005.10 1005.35 1006.78 1007.53 1008.12 1008.89 1009.41 1009.94 1010.35 1010.59 1010.97 1011.24 1010.91 1010.63 1010.78 1010.94 1011.10 1011.22 1011.24 1011.12 1011.18 1011.31 1011.41 1011.79 1012.38 1012.75 1012.93 1012.80 1012.83 1012.95 1012.91
1005.74 1005.78 1006.01 1004.15 1004.98 1005.37 1004.60 1001.59 1002.56 1002.96 1003.07 1003.86 1004.96 1005.23 1005.96 1006.96 1007.78 1008.31 1009.07 1009.41 1010.02 1010.63 1010.92 1011.17 1010.85 1010.91 1010.85 1010.73 1011.01 1011.33 1011.42 1011.53 1011.74 1011.80 1011.79 1011.65 1011.62 1011.31 1011.31 1011.84 1012.27 1012.42 1012.52 1012.45
1005.26 1006.37 1006.85 1005.70 1005.89 1004.60 1001.91 1001.21 1001.64 1002.20 1003.45 1004.07 1005.12 1005.55 1005.77 1006.58 1007.90 1008.46 1009.15 1009.34 1009.94 1010.73 1011.06 1011.12 1011.28 1011.07 1010.66 1010.78 1011.01 1011.21 1011.25 1011.26 1011.40 1011.53 1011.66 1011.43 1011.46 1011.48 1011.30 1011.39 1011.33 1011.55 1011.63 1011.71
1004.49 1005.75 1006.25 1006.22 1005.56 1004.27 1003.33 1001.92 1001.79 1002.03 1003.16 1003.90 1004.81 1005.64 1006.44 1007.71 1008.55 1008.82 1009.13 1009.32 1010.05 1010.11 1010.33 1010.57 1011.37 1010.90 1010.89 1010.98 1010.82 1011.04 1011.10 1011.27 1011.36 1011.33 1011.20 1010.91 1010.82 1011.08 1011.06 1010.88 1011.03 1010.81 1011.05 1011.30
1004.13 1004.43 1005.17 1005.75 1004.92 1003.66 1001.49 1001.24 1001.49 1002.75 1003.74 1003.91 1004.37 1005.18 1006.52 1008.19 1009.10 1008.14 1008.89 1009.58 1009.80 1009.57 1009.56 1010.22 1010.29 1010.65 1010.84 1010.80 1010.59 1010.69 1010.97 1011.19 1011.22 1010.75 1010.48 1010.46 1010.56 1010.48 1010.49 1010.38 1010.24 1010.33 1010.27 1010.00
1003.72 1004.31 1004.11 1004.48 1004.06 1002.85 1001.54 1001.35 1001.92 1003.16 1001.58 1001.86 1003.08 1004.48 1005.69 1006.28 1006.23 1006.61 1008.06 1008.72 1008.95 1009.39 1009.81 1010.17 1010.67 1010.94 1010.91 1010.85 1010.82 1010.92 1011.01 1011.07 1010.37 1010.06 1010.00 1010.16 1010.15 1010.01 1009.63 1009.66 1009.84 1010.08 1009.98 1009.99
1001.94 1003.30 1003.61 1003.82 1003.64 1002.93 1001.51 1001.71 1001.65 1001.27 1001.30 1002.24 1003.51 1004.73 1005.95 1006.76 1007.19 1007.33 1008.34 1009.04 1009.47 1009.93 1010.28 1010.43 1010.67 1010.80 1010.77 1010.82 1011.00 1010.90 1010.81 1010.41 1010.36 1010.30 1010.18 1009.95 1009.79 1009.52 1009.11 1009.12 1009.19 1009.32 1009.52 1009.75
1001.84 1000.86 1001.50 1001.88 1001.23 1000.96 1000.97 1000.84 1000.86 1001.24 1001.88 1003.26 1003.86 1004.93 1005.81 1006.74 1007.32 1008.02 1008.86 1009.31 1009.60 1009.87 1010.17 1010.40 1010.49 1010.46 1010.49 1010.55 1010.68 1010.67 1010.49 1010.48 1010.28 1010.13 1009.91 1009.59 1009.22 1008.89 1008.65 1008.70 1008.69 1008.48 1008.56 1008.88
1001.32 1000.88 1001.30 1001.72 1000.96 1000.75 1000.87 1001.31 1001.50 1002.09 1002.49 1003.22 1004.01 1004.98 1005.69 1006.62 1007.56 1008.34 1008.72 1009.15 1009.42 1009.72 1009.93 1009.99 1010.02 1010.11 1010.32 1010.48 1010.59 1010.77 1010.52 1010.41 1010.31 1010.13 1009.66 1009.16 1008.95 1008.47 1008.21 1008.11 1007.81 1007.76 1007.68 1007.58
1000.90 1000.98 1001.01 1001.14 1000.80 1001.00 1001.35 1001.42 1001.94 1002.86 1003.23 1003.71 1004.28 1004.81 1005.62 1006.53 1007.65 1008.08 1008.59 1008.95 1009.15 1009.34 1009.38 1009.70 1010.27 1010.48 1010.45 1010.40 1010.34 1010.58 1010.63 1010.57 1010.14 1009.68 1009.27 1008.79 1008.31 1007.99 1007.75 1007.52 1006.93 1006.58 1006.30 1006.35
1000.66 1000.56 1000.78 1000.34 1000.03 1000.44 1001.26 1001.79 1002.43 1003.19 1003.73 1003.98 1004.47 1005.30 1005.69 1006.10 1006.89 1007.60 1008.29 1008.61 1008.89 1009.38 1009.89 1010.15 1010.37 1010.43 1010.31 1010.23 1010.43 1010.39 1010.14 1009.98 1009.56 1009.45 1008.78 1008.26 1007.78 1007.34 1007.03 1006.63 1006.12 1005.83 1005.49 1005.51
Thickness
5686 5670 5678 5712 5703 5700 5701 5697 5701 5714 5729 5717 5717 5710 5731 5739 5739 5746 5755 5754 5752 5754 5765 5763 5764 5768 5772 5766 5768 5763 5757 5754 5748 5739 5733 5727 5726 5723 5721 5719 5715 5711 5707 5702
5666 5671 5695 5699 5696 5691 5687 5686 5690 5710 5719 5701 5710 5712 5729 5735 5745 5754 5757 5753 5747 5755 5756 5756 5757 5758 5761 5764 5766 5760 5757 5751 5749 5744 5739 5731 5726 5720 5717 5714 5711 5708 5706 5701
5673 5686 5696 5688 5684 5679 5682 5679 5689 5690 5696 5702 5698 5705 5724 5740 5747 5758 5758 5748 5750 5750 5745 5744 5745 5747 5751 5752 5756 5754 5753 5749 5745 5740 5730 5723 5717 5712 5708 5706 5705 5702 5699 5696
5668 5680 5679 5678 5674 5676 5669 5695 5691 5681 5673 5661 5697 5665 5706 5728 5733 5742 5743 5740 5740 5737 5734 5734 5733 5737 5739 5741 5743 5742 5740 5738 5735 5732 5727 5722 5720 5714 5710 5706 5700 5695 5692 5688
5671 5676 5671 5672 5683 5683 5677 5692 5679 5676 5671 5666 5669 5657 5702 5724 5720 5732 5734 5730 5729 5726 5724 5723 5722 5724 5727 5733 5732 5731 5730 5726 5723 5721 5719 5716 5710 5705 5699 5695 5691 5687 5681 5678
5668 5681 5678 5683 5689 5686 5692 5680 5679 5668 5658 5638 5657 5662 5711 5708 5720 5730 5727 5724 5721 5715 5714 5713 5713 5715 5716 5721 5721 5722 5718 5713 5711 5709 5706 5703 5699 5693 5688 5682 5680 5675 5671 5670
5661 5668 5674 5684 5677 5681 5674 5662 5637 5632 5623 5637 5676 5661 5696 5709 5723 5725 5719 5715 5710 5705 5705 5707 5707 5708 5708 5707 5710 5710 5709 5705 5704 5702 5699 5696 5691 5685 5681 5675 5668 5661 5656 5652
5640 5645 5667 5681 5680 5671 5670 5661 5636 5621 5622 5654 5663 5650 5681 5713 5718 5722 5718 5712 5703 5700 5701 5700 5701 5701 5700 5698 5698 5700 5697 5693 5689 5686 5682 5678 5675 5671 5666 5662 5655 5649 5644 5640
5641 5649 5681 5688 5692 5674 5661 5644 5670 5644 5643 5624 5640 5663 5692 5701 5704 5706 5703 5696 5692 5692 5694 5698 5695 5694 5691 5686 5686 5686 5685 5680 5677 5672 5666 5661 5657 5655 5653 5649 5643 5638 5631 5627
5656 5644 5672 5678 5672 5669 5664 5669 5627 5619 5611 5615 5640 5643 5665 5683 5685 5686 5686 5687 5684 5685 5687 5687 5685 5683 5679 5676 5675 5672 5670 5670 5664 5658 5654 5650 5645 5639 5633 5629 5627 5624 5620 5615
5647 5641 5646 5654 5651 5650 5643 5644 5641 5639 5620 5609 5615 5646 5682 5685 5682 5681 5678 5678 5676 5677 5678 5679 5676 5673 5670 5664 5660 5658 5657 5653 5649 5645 5642 5639 5636 5632 5629 5625 5617 5609 5606 5601
5647 5621 5622 5630 5648 5656 5654 5648 5644 5619 5614 5628 5620 5666 5672 5676 5676 5672 5669 5667 5665 5665 5664 5667 5669 5664 5658 5654 5649 5646 5642 5640 5636 5633 5629 5624 5618 5611 5606 5603 5595 5589 5586 5579
5627 5598 5600 5611 5623 5630 5631 5640 5646 5644 5620 5630 5609 5643 5664 5665 5657 5658 5655 5651 5650 5651 5647 5645 5646 5644 5643 5639 5636 5629 5623 5619 5616 5609 5605 5602 5598 5592 5588 5581 5576 5572 5566 5560
5624 5606 5604 5618 5620 5618 5621 5633 5639 5633 5613 5633 5636 5631 5640 5642 5639 5637 5631 5630 5628 5627 5624 5620 5620 5617 5616 5615 5612 5609 5605 5600 5593 5587 5581 5578 5576 5574 5572 5568 5561 5554 5552 5546
5600 5603 5609 5622 5615 5612 5619 5627 5631 5622 5645 5620 5637 5632 5635 5621 5620 5617 5613 5611 5607 5603 5602 5599 5596 5597 5599 5597 5595 5590 5587 5584 5579 5572 5566 5561 5556 5550 5543 5544 5541 5539 5535 5530
5579 5582 5597 5605 5612 5602 5603 5617 5627 5633 5631 5614 5617 5614 5614 5602 5601 5603 5600 5594 5588 5585 5584 5581 5577 5580 5582 5579 5577 5572 5568 5565 5565 5563 5558 5554 5548 5539 5533 5526 5522 5520 5516 5515
5567 5564 5566 5591 5592 5576 5573 5615 5613 5610 5616 5613 5596 5606 5597 5592 5592 5588 5581 5579 5575 5572 5570 5567 5568 5564 5562 5560 5555 5551 5547 5544 5539 5536 5533 5529 5527 5527 5523 5514 5509 5505 5504 5501
5555 5545 5538 5564 5552 5565 5606 5613 5612 5606 5600 5594 5590 5592 5594 5592 5576 5571 5567 5566 5559 5553 5550 5548 5543 5543 5545 5542 5538 5533 5530 5528 5523 5518 5512 5511 5508 5505 5502 5497 5496 5493 5494 5491
5559 5539 5537 5543 5550 5554 5569 5591 5593 5594 5590 5588 5581 5578 5572 5558 5555 5555 5554 5549 5539 5537 5534 5531 5522 5525 5525 5522 5521 5519 5517 5510 5504 5501 5495 5490 5487 5486 5484 5483 5476 5476 5473 5474
5542 5545 5544 5528 5544 5556 5583 5588 5590 5579 5565 5578 5580 5571 5553 5540 5529 5546 5539 5530 5527 5529 5526 5513 5517 5514 5508 5503 5503 5502 5495 5486 5480 5478 5479 5474 5466 5461 5460 5461 5462 5458 5457 5462
5530 5527 5537 5531 5533 5541 5574 5577 5577 5556 5588 5591 5582 5566 5550 5548 5556 5550 5533 5525 5520 5512 5507 5503 5496 5490 5488 5483 5479 5476 5471 5466 5463 5459 5456 5453 5448 5442 5442 5439 5437 5438 5439 5444
5540 5524 5526 5521 5524 5534 5562 5561 5563 5576 5568 5568 5555 5545 5537 5528 5521 5520 5510 5501 5496 5490 5486 5484 5478 5473 5466 5459 5452 5451 5450 5448 5444 5438 5433 5428 5423 5420 5419 5417 5415 5412 5415 5420
5527 5542 5538 5535 5537 5546 5555 5554 5550 5550 5548 5535 5534 5524 5518 5508 5504 5493 5485 5480 5475 5471 5465 5461 5457 5457 5452 5445 5437 5434 5431 5424 5421 5416 5410 5405 5401 5396 5391 5385 5384 5386 5390 5399
5515 5520 5509 5516 5528 5532 5531 5526 5529 5529 5527 5521 5516 5507 5502 5492 5479 5471 5469 5462 5457 5453 5449 5446 5443 5440 5436 5429 5421 5410 5406 5400 5395 5389 5390 5386 5379 5381 5378 5372 5371 5370 5373 5379
5498 5503 5500 5501 5512 5510 5512 5514 5512 5508 5503 5500 5496 5492 5485 5476 5464 5459 5452 5448 5443 5437 5435 5429 5420 5416 5414 5409 5403 5393 5383 5376 5374 5373 5373 5374 5372 5371 5367 5361 5359 5358 5362 5366
5483 5488 5482 5486 5502 5497 5496 5491 5489 5484 5483 5482 5479 5472 5468 5463 5454 5447 5436 5431 5425 5417 5409 5402 5397 5395 5392 5387 5381 5376 5367 5363 5363 5364 5365 5364 5363 5362 5360 5355 5351 5349 5351 5355